Date String (YYYY-MM-DD hh:mm:ss) UTC,Instrument flags,absolute air pressure of the measurement (hPa),sample flow rate (lpm),inlet stack bypass flow (lpm),air temperature of the measurement (°C),ambient temperature measured by the external sensor (°C),aerosol sample conditioner tube jacket temperature (°C),OPC LED temperature (°C),internal box temperature (°C),relative humidity of the measurement (%),span deviation,mass concentration of particles derived from Lorenz-Mie calculation of OPC scattering (μg/m³),mass concentration of particles derived from Lorenz-Mie calculation of OPC scattering (μg/m³),mass concentration of particles derived from Lorenz-Mie calculation of OPC scattering (μg/m³)
DateTimeUTC,F1_M11,P_M11,Q1_M11,Q2_M11,T1_M11,T2_M11,T3_M11,T4_M11,T5_M11,U1_M11,ZSPAN_M11,X0_M11,X2_M11,X1_M11
2024-04-26 14:00:00,SystemResetWarning,0815.8,4.99,000.00,025.0,024.2,000.0,033.4,026.8,016.8,0000.0,0006.78,0002.11,0001.50
2024-04-26 14:01:00,SystemResetWarning,0815.8,5.02,000.00,025.0,024.2,000.0,033.4,026.8,017.1,0000.0,0006.67,0002.17,0001.51
2024-04-26 14:02:00,SystemResetWarning,0815.9,5.00,000.00,025.0,024.2,000.0,033.4,026.8,017.3,0000.0,0007.39,0002.25,0001.54
2024-04-26 14:03:00,SystemResetWarning,0815.8,4.99,000.00,025.0,024.2,000.0,033.4,026.8,017.8,0000.0,0007.46,0002.33,0001.56
2024-04-26 14:04:00,SystemResetWarning,0815.9,5.00,000.00,025.0,024.2,000.0,033.4,026.8,018.2,0000.0,0006.83,0002.36,0001.58
2024-04-26 14:05:00,SystemResetWarning,0815.8,5.01,000.00,025.0,024.3,000.0,033.4,026.8,017.4,0000.0,0007.45,0002.35,0001.58
2024-04-26 14:06:00,SystemResetWarning,0815.9,5.00,000.00,025.0,024.3,000.0,033.5,026.8,016.9,0000.0,0007.10,0002.32,0001.58
2024-04-26 14:07:00,SystemResetWarning,0815.8,4.99,000.00,025.0,024.3,000.0,033.5,026.8,016.0,0000.0,0007.47,0002.35,0001.58
2024-04-26 14:08:00,SystemResetWarning,0815.8,4.99,000.00,025.0,024.3,000.0,033.5,026.8,015.6,0000.0,0007.44,0002.37,0001.61
2024-04-26 14:09:00,SystemResetWarning,0815.8,5.01,000.00,025.0,024.3,000.0,033.5,026.8,015.2,0000.0,0007.42,0002.38,0001.62
2024-04-26 14:10:00,SystemResetWarning,0815.8,5.01,000.00,025.0,024.3,000.0,033.5,026.8,014.6,0000.0,0007.48,0002.43,0001.64
2024-04-26 14:11:00,SystemResetWarning,0815.9,5.00,000.00,025.0,024.2,000.0,033.5,026.8,015.0,0000.0,0007.44,0002.41,0001.63
2024-04-26 14:12:00,SystemResetWarning,0815.8,4.99,000.00,025.0,024.2,000.0,033.5,026.8,014.7,0000.0,0007.43,0002.41,0001.62
2024-04-26 14:13:00,SystemResetWarning,0815.8,4.99,000.00,025.0,024.2,000.0,033.5,026.8,014.9,0000.0,0006.75,0002.35,0001.62
2024-04-26 14:14:00,SystemResetWarning,0815.9,5.00,000.00,025.0,024.2,000.0,033.5,026.8,014.7,0000.0,0006.52,0002.32,0001.61
2024-04-26 14:15:00,SystemResetWarning,0815.9,5.00,000.00,025.0,024.2,000.0,033.5,026.8,014.9,0000.0,0006.15,0002.34,0001.62
2024-04-26 14:16:00,SystemResetWarning,0815.9,5.00,000.00,025.0,024.2,000.0,033.5,026.8,015.1,0000.0,0005.11,0002.36,0001.62
2024-04-26 14:17:00,SystemResetWarning,0815.8,5.01,000.00,025.0,024.2,000.0,033.5,026.8,015.1,0000.0,0005.09,0002.38,0001.62
2024-04-26 14:18:00,SystemResetWarning,0815.8,5.01,000.00,025.0,024.2,000.0,033.5,026.8,014.9,0000.0,0003.74,0002.33,0001.62
2024-04-26 14:19:00,SystemResetWarning,0815.9,5.00,000.00,025.0,024.2,000.0,033.5,026.7,014.8,0000.0,0003.86,0002.37,0001.63
2024-04-26 14:20:00,SystemResetWarning,0815.9,5.00,000.00,025.0,024.2,000.0,033.5,026.8,014.8,0000.0,0004.83,0002.47,0001.64
2024-04-26 14:21:00,SystemResetWarning,0815.8,5.00,000.00,025.0,024.2,000.0,033.5,026.8,014.8,0000.0,0005.39,0002.46,0001.63
2024-04-26 14:22:00,SystemResetWarning,0815.9,4.99,000.00,025.0,024.1,000.0,033.5,026.7,014.4,0000.0,0005.48,0002.47,0001.64
2024-04-26 14:23:00,SystemResetWarning,0815.9,5.00,000.00,025.0,024.1,000.0,033.5,026.7,014.8,0000.0,0005.37,0002.44,0001.63
2024-04-26 14:24:00,SystemResetWarning,0816.0,5.00,000.00,025.0,024.1,000.0,033.4,026.7,015.2,0000.0,0005.41,0002.46,0001.62
2024-04-26 14:25:00,SystemResetWarning,0816.0,4.99,000.00,025.0,024.1,000.0,033.4,026.7,015.8,0000.0,0005.47,0002.46,0001.63
2024-04-26 14:26:00,SystemResetWarning,0816.1,5.00,000.00,025.0,024.2,000.0,033.4,026.8,015.6,0000.0,0005.38,0002.42,0001.61
2024-04-26 14:27:00,SystemResetWarning,0816.1,5.01,000.00,025.0,024.2,000.0,033.4,026.8,016.2,0000.0,0005.57,0002.43,0001.61
2024-04-26 14:28:00,SystemResetWarning,0816.1,5.01,000.00,025.0,024.2,000.0,033.4,026.8,016.5,0000.0,0005.94,0002.37,0001.60
2024-04-26 14:29:00,SystemResetWarning,0816.1,5.01,000.00,025.0,024.2,000.0,033.5,026.8,016.6,0000.0,0006.13,0002.42,0001.59
2024-04-26 14:30:00,SystemResetWarning,0816.1,4.99,000.00,025.0,024.2,000.0,033.5,026.8,016.0,0000.0,0006.12,0002.37,0001.58
2024-04-26 14:31:00,SystemResetWarning,0816.1,4.99,000.00,025.0,024.3,000.0,033.5,026.8,017.9,0000.0,0005.32,0002.27,0001.57
2024-04-26 14:32:00,SystemResetWarning,0816.1,5.00,000.00,025.0,024.3,000.0,033.5,026.9,020.8,0000.0,0004.72,0002.20,0001.55
2024-04-26 14:33:00,SystemResetWarning,0816.1,5.01,000.00,025.1,024.3,000.0,033.5,026.9,021.9,0000.0,0004.67,0002.23,0001.56
2024-04-26 14:34:00,SystemResetWarning,0816.1,5.01,000.00,025.1,024.4,000.0,033.5,026.9,021.7,0000.0,0004.66,0002.22,0001.56
2024-04-26 14:35:00,SystemResetWarning,0816.1,4.99,000.00,025.1,024.4,000.0,033.5,026.9,020.4,0000.0,0004.71,0002.23,0001.56
2024-04-26 14:36:00,SystemResetWarning,0816.1,4.99,000.00,025.1,024.4,000.0,033.5,026.9,021.2,0000.0,0004.74,0002.26,0001.56
2024-04-26 14:37:00,SystemResetWarning,0816.1,5.02,000.00,025.1,024.4,000.0,033.5,026.9,019.3,0000.0,0004.75,0002.28,0001.57
2024-04-26 14:38:00,SystemResetWarning,0816.1,4.99,000.00,025.1,024.4,000.0,033.5,026.9,020.5,0000.0,0004.65,0002.26,0001.57
2024-04-26 14:39:00,SystemResetWarning,0816.1,4.99,000.00,025.1,024.4,000.0,033.5,027.0,022.7,0000.0,0005.46,0002.30,0001.59
2024-04-26 14:40:00,SystemResetWarning,0816.1,4.99,000.00,025.1,024.4,000.0,033.5,027.0,023.3,0000.0,0005.45,0002.29,0001.61
2024-04-26 14:41:00,SystemResetWarning,0816.1,5.00,000.00,025.2,024.4,000.0,033.6,027.0,023.2,0000.0,0005.53,0002.35,0001.62
2024-04-26 14:42:00,SystemResetWarning,0816.1,5.01,000.00,025.2,024.4,000.0,033.6,027.0,023.9,0000.0,0005.68,0002.44,0001.64
2024-04-26 14:43:00,SystemResetWarning,0816.1,5.00,000.00,025.2,024.4,000.0,033.6,027.0,023.7,0000.0,0005.97,0002.48,0001.67
2024-04-26 14:44:00,SystemResetWarning,0816.0,4.99,000.00,025.2,024.4,000.0,033.6,027.0,022.9,0000.0,0006.01,0002.48,0001.67
2024-04-26 14:45:00,SystemResetWarning,0816.0,4.99,000.00,025.2,024.5,000.0,033.6,027.1,023.0,0000.0,0005.97,0002.46,0001.70
2024-04-26 14:46:00,SystemResetWarning,0816.0,5.02,000.00,025.2,024.5,000.0,033.6,027.1,021.8,0000.0,0006.31,0002.50,0001.72
2024-04-26 14:47:00,SystemResetWarning,0816.0,5.00,000.00,025.2,024.5,000.0,033.6,027.1,021.0,0000.0,0007.52,0002.56,0001.75
2024-04-26 14:48:00,SystemResetWarning,0816.0,5.00,000.00,025.2,024.5,000.0,033.6,027.1,021.1,0000.0,0007.71,0002.62,0001.76
2024-04-26 14:49:00,SystemResetWarning,0816.0,4.98,000.00,025.2,024.5,000.0,033.6,027.1,019.9,0000.0,0007.71,0002.64,0001.78
2024-04-26 14:50:00,SystemResetWarning,0815.9,5.02,000.00,025.3,024.5,000.0,033.7,027.1,019.3,0000.0,0006.80,0002.62,0001.77
2024-04-26 14:51:00,SystemResetWarning,0815.8,5.00,000.00,025.3,024.6,000.0,033.7,027.1,018.5,0000.0,0006.81,0002.59,0001.76
2024-04-26 14:52:00,SystemResetWarning,0815.8,4.99,000.00,025.3,024.6,000.0,033.7,027.1,020.7,0000.0,0006.83,0002.57,0001.76
2024-04-26 14:53:00,SystemResetWarning,0816.0,4.99,000.00,025.3,024.6,000.0,033.7,027.1,020.1,0000.0,0007.36,0002.53,0001.75
2024-04-26 14:54:00,SystemResetWarning,0816.0,5.00,000.00,025.3,024.6,000.0,033.7,027.2,021.3,0000.0,0007.07,0002.49,0001.74
2024-04-26 14:55:00,SystemResetWarning,0816.0,5.02,000.00,025.3,024.6,000.0,033.7,027.1,021.1,0000.0,0007.02,0002.48,0001.75
2024-04-26 14:56:00,SystemResetWarning,0816.0,4.99,000.00,025.3,024.6,000.0,033.7,027.2,022.1,0000.0,0007.11,0002.52,0001.74
2024-04-26 14:57:00,SystemResetWarning,0816.0,5.00,000.00,025.3,024.6,000.0,033.7,027.2,024.8,0000.0,0007.24,0002.52,0001.73
2024-04-26 14:58:00,SystemResetWarning,0816.0,4.99,000.00,025.4,024.6,000.0,033.7,027.2,024.6,0000.0,0006.30,0002.51,0001.73
2024-04-26 14:59:00,SystemResetWarning,0816.0,5.00,000.00,025.4,024.6,000.0,033.8,027.2,023.5,0000.0,0006.72,0002.50,0001.72
